Location: Celina Elementary School
(33.3262°N, 96.7767°W)
Time: 09:04:34
(UTC+00:00)

H-2A R/B - Pass Details

Date: 26 November 2021
Orbit: 733 x 836 km, 98.2° (Epoch: 19 January)

Event Time Altitude Azimuth Distance (km) Brightness Sun altitude
Rises 23:44:51 0° 142° (SE) 3,340 5.1 -5.6°
Reaches altitude 10° 23:47:26 10° 132° (SE) 2,398 4.3 -6.1°
Maximum altitude 23:52:04 32° 71° (ENE) 1,361 2.8 -7.0°
Drops below altitude 10° 23:56:37 10° 10° (N) 2,353 4.2 -7.9°
Sets 23:59:07 0° 0° (N) 3,268 5.1 -8.4°
